Probability
0 0 0 0 0 0 0 0 0 0 0 0 0 0 0 0 0 0 0 0 0 0 0 0 0 0 0 0 0 0 0 0 0 0 0 0 0 0 0 0 0 0 0
0 0 0 0 0 0 0 0 0 0 0 0 0 0 0 0 0 0 0 0 0 0 0 0 0 0 0 0 0 0 0 0 0 0 0 0 0 0 0 0 0 0 0
0 0 0 0 0 0 0 0 0 0 0 0 0 0 0 0 0 0 0 0 0 0 0 0 0 0 0 0 0 0 0 0 0 0 0 0 0 0 0 0 0 0 0
0 0 0 0 0 0 0 0 0 0 0 0 0 0 0 0 0 0 0 0 0 0 0 0 0 0 0 0 0 0 0 0 0 0 0 0 0 0 0 0 0 0 0
0 0 0 0 0 0 0 0 0 0 0 0 0 0 0 0 0 0 0 0 0 0 0 0 0 0 0 0 0 0 0 0 0 0 0 0 0 0 0 0 0 0 0
0 0 0 0 0 0 0 0 0 0 0 0 0 0 0 0 0 0 0 0 0 0 0 0 0 0 0 0 0 0 0 0 0 0 0 0 0 0 0 0 0 0 0
0 0 0 0 0 0 0 0 0 0 0 0 0 0 0 0 0 0 0 0 0 0 0 0 0 0 0 0 0 0 0 0 0 0 0 0 0 0 0 0 0 0 0
0 0 0 0 0 0 0 0 0 0 0 0 0 0 0 0 0 0 0 0 0 0 0 0 0 0 0 0 0 0 0 0 0 0 0 0 0 0 0 0 0 0 0
0 0 0 0 0 0 0 0 0 0 0 0 0 0 0 0 0 0 0 0 0 0 0 0 0 0 0 0 0 0 0 0 0 0 0 0 0 0 0 0 0 0 0
0 0 0 0 0 0 0 0 0 0 0 0 0 0 0 0 0 0 0 0 0 0 0 0 0 0 0 0 0 0 0 0 0 0 0 0 0 0 0 0 0 0 0
0 0 0 0 0 0 0 0 0 0 0 0 0 0 0 0 0 0 0 0 0 0 0 0 0 0 0 0 0 0 0 0 0 0 0 0 0 0 0 0 0 0 0
0 0 0 0 0 0 0 0 0 0 0 0 0 0 0 0 0 0 0 0 0 0 0 0 0 0 0 0 0 0 0 0 0 0 0 0 0 0 0 0 0 0 0
0 0 0 0 0 0 0 0 0 0 0 0 0 0 0 0 0 0 0 0 0 0 0 0 0 0 0 0 0 0 0 0 0 0 0 0 0 0 0 0 0 0 0
0 0 0 0 0 0 0 0 0 0 0 0 0 0 0 0 0 0 0 0 0 0 0 0 0 0 0 0 0 0 0 0 0 0 0 0 0 0 0 0 0 0 0
0 0 0 0 0 0 0 0 0 0 0 0 0 0 0 0 0 0 0 0 0 0 0 0 0 0 0 0 0 0 0 0 0 0 0 0 0 0 0 0 0 0 0
0 0 0 0 0 0 0 0 0 0 0 0 0 0 0 0 0 0 0 0 0 0 0 0 0 0 0 0 0 0 0 0 0 0 0 0 0 0 0 0 0 0 0
0 0 0 0 0 0 0 0 0 0 0 0 0 0 0 0 0 0 0 0 0 0 0 0 0 0 0 0 0 0 0 0 0 0 0 0 0 0 0 0 0 0 0
0 0 0 0 0 0 0 0 0 0 0 0 0 0 0 0 0 0 0 0 0 0 0 0 0 0 0 0 0 0 0 0 0 0 0 0 0 0 0 0 0 0 0
0 0 0 0 0 0 0 0 0 0 0 0 0 0 0 0 0 0 0 0 0 0 0 0 0 0 0 0 0 0 0 0 0 0 0 0 0 0 0 0 0 0 0
0 0 0 0 0 0 0 0 0 0 0 0 0 0 0 0 0 0 0 0 0 0 0 0 0 0 0 0 0 0 0 0 0 0 0 0 0 0 0 0 0 0 0
0 0 0 0 0 0 0 0 0 0 0 0 0 0 0 0 0 0 0 0 0 0 0 0 0 0 0 0 0 0 0 0 0 0 0 0 0 0 0 0 0 0 0
0 0 0 0 0 0 0 0 0 0 0 0 0 0 0 0 0 0 0 0 0 0 0 0 0 0 0 0 0 0 0 0 0 0 0 0 0 0 0 0 0 0 0
0 0 0 0 0 0 0 0 0 0 0 0 0 0 0 0 0 0 0 0 0 0 0 0 0 0 0 0 0 0 0 0 0 0 0 0 0 0 0 0 0 0 0
0 0 0 0 0 0 0 0 0 0 0 0 0 0 0 0 0 0 0 0 0 0 0 0 0 0 0 0 0 0 0 0 0 0 0 0 0 0 0 0 0 0 0
0 0 0 0 0 0 0 0 0 0 0 0 0 0 0 0 0 0 0 0 0 0 0 0 0 0 0 0 0 0 0 0 0 0 0 0 0 0 0 0 0 0 0
0 0 0 0 0 0 0 0 0 0 0 0 0 0 0 0 0 0 0 0 0 0 0 0 0 0 0 0 0 0 0 0 0 0 0 0 0 0 0 0 0 0 0
Wind_Speed
7 7 7 7 7 8 8 8 7 7 8 10 11 11 11 12 11 12 12 13 15 12 10 11 11 8 7 5 5 5 4 5 5 3 2 4 8 7 6 5 5 5 5
7 7 8 8 7 8 9 8 7 8 8 9 9 10 11 11 11 13 14 14 15 16 14 13 13 10 10 7 6 6 5 4 6 5 3 3 5 7 6 6 5 5 5
7 7 8 8 9 10 9 8 8 8 8 8 9 10 11 11 11 12 12 13 14 14 15 15 14 14 13 9 9 7 5 4 4 6 4 3 2 4 4 4 4 4 5
7 8 9 10 10 9 8 8 8 8 8 9 9 10 10 10 10 10 10 10 11 11 12 12 13 15 15 13 10 9 7 6 5 6 4 3 3 3 3 3 4 4 5
8 9 10 9 8 7 7 7 7 8 8 8 8 8 8 8 9 10 10 10 11 10 9 10 11 11 14 13 10 10 10 7 6 5 4 3 4 4 4 4 5 3 4
8 9 8 7 7 7 7 7 7 7 7 7 8 8 8 7 13 18 13 10 10 11 10 9 9 10 12 17 16 16 15 11 9 6 4 5 5 5 4 4 4 3 4
6 7 6 6 7 7 6 7 7 7 7 7 7 8 9 11 16 17 16 9 9 9 10 10 8 8 11 10 13 16 14 14 14 9 7 6 6 6 6 6 6 6 5
6 6 5 6 6 6 6 7 7 6 7 7 7 7 7 9 15 16 14 9 7 8 9 10 11 11 11 12 11 9 8 8 9 7 7 6 5 5 6 6 6 4 4
5 5 5 5 5 6 7 6 5 5 5 6 5 7 7 7 13 15 15 7 6 7 8 9 10 11 17 19 13 11 9 7 10 11 10 10 11 11 8 4 4 4 5
5 5 4 4 5 6 6 5 4 4 5 5 5 5 6 6 11 15 16 6 7 6 6 7 10 11 18 20 12 11 11 8 7 7 9 11 10 12 15 9 7 7 5
3 2 2 2 3 4 3 3 4 4 5 4 4 4 5 5 9 14 16 7 7 7 6 6 7 16 19 21 16 10 12 9 7 7 7 6 6 7 8 8 8 8 8
2 1 0 1 1 2 3 3 4 5 5 4 4 3 2 3 5 10 14 13 10 7 6 6 8 17 18 20 15 13 15 10 5 6 6 7 7 8 7 8 9 9 9
1 1 2 2 2 3 4 4 3 4 4 4 4 3 3 2 4 9 11 13 14 7 6 10 12 16 17 14 16 16 11 7 6 7 8 8 7 6 5 5 6 6 6
1 2 2 3 3 3 3 3 3 3 3 3 3 3 3 2 2 2 3 4 8 8 6 8 13 15 12 9 8 10 7 6 6 7 6 5 3 4 5 5 5 5 4
2 2 3 3 3 4 4 3 3 2 2 3 2 2 3 2 3 5 4 3 3 4 5 4 4 4 5 5 5 5 5 5 6 5 4 4 4 4 4 4 4 4 5
2 2 2 3 3 3 4 5 8 7 8 8 6 4 2 2 3 5 6 6 7 8 5 3 4 4 4 4 4 4 4 4 4 4 4 4 4 4 4 3 3 5 5
2 2 3 3 3 3 3 4 5 7 10 10 9 7 6 5 4 3 3 3 4 6 4 3 3 3 4 4 4 4 3 3 3 3 4 4 4 4 4 4 4 4 5
3 3 3 3 3 3 3 3 3 4 3 4 8 11 9 8 7 5 2 2 1 1 1 1 1 1 2 2 3 3 3 3 2 3 3 3 3 4 4 4 4 5 4
4 3 3 4 4 4 4 4 4 5 4 3 3 6 8 8 9 10 7 4 3 2 2 2 2 1 1 0 0 1 2 2 2 2 3 3 3 3 4 4 4 5 5
5 6 5 5 4 4 4 5 5 4 4 4 4 3 3 4 4 5 5 4 4 3 3 2 2 2 2 1 1 0 0 1 2 2 2 2 3 3 4 4 4 4 4
4 5 7 6 5 5 5 5 5 5 4 4 3 4 6 4 4 4 4 4 3 3 2 2 1 1 1 1 0 0 1 1 1 2 2 2 2 3 3 3 4 4 3
4 5 5 5 5 5 5 5 5 5 4 4 3 4 8 4 3 3 3 2 2 2 2 1 1 1 1 0 0 1 2 2 2 2 2 2 2 2 3 3 3 3 3
5 6 6 5 5 6 6 5 4 4 4 3 3 3 3 3 2 2 1 1 1 1 1 1 1 1 1 1 1 1 2 3 3 2 2 2 3 3 3 4 4 4 4
5 6 6 5 5 5 4 4 4 3 3 2 2 2 1 1 1 1 1 1 1 1 1 1 1 2 3 2 2 2 2 3 2 3 4 4 4 3 3 4 4 4 4
5 5 5 4 4 4 3 3 3 2 2 1 1 1 1 1 1 1 2 2 2 2 3 3 2 3 5 5 5 4 5 6 4 3 3 3 4 4 4 4 4 4 4
5 5 4 3 3 2 2 2 1 1 1 1 1 1 2 2 2 2 2 2 3 3 4 3 4 5 6 5 7 8 8 9 8 7 5 4 5 5 5 4 5 4 5
Wind_Direction
214 214 217 219 217 217 219 217 206 198 191 189 192 196 200 201 199 200 200 196 199 200 195 192 190 178 180 178 168 167 161 139 140 157 138 147 165 180 188 192 208 219 234
214 213 216 216 215 217 220 215 204 201 195 190 188 194 199 201 201 202 202 200 200 200 196 190 188 179 181 178 175 175 168 146 137 147 148 150 174 183 183 196 210 218 225
212 214 218 217 216 218 218 210 202 198 194 189 188 194 198 201 202 205 205 205 205 203 197 193 188 180 182 179 176 173 162 143 128 140 148 143 148 165 175 203 216 224 230
211 215 221 223 220 218 213 206 201 196 194 194 195 197 198 199 201 202 203 205 204 202 198 192 187 185 184 178 175 169 156 144 133 137 136 142 154 152 161 200 227 227 236
213 220 227 227 221 214 209 204 198 196 197 192 192 197 196 197 201 199 200 201 200 198 194 190 189 186 185 177 172 168 161 154 148 148 150 151 168 165 193 191 217 234 244
219 226 228 223 218 213 207 198 193 195 192 186 192 194 198 204 209 207 201 199 196 193 190 185 179 177 180 179 177 175 172 164 165 162 168 181 191 188 183 189 199 211 256
233 235 229 221 218 211 198 192 195 193 188 191 194 194 202 210 211 210 205 195 194 192 186 178 176 175 169 167 174 177 181 184 176 166 176 195 193 192 186 199 207 216 230
248 244 234 223 219 205 194 198 197 188 189 192 194 196 199 209 211 209 200 193 191 187 183 178 174 170 173 165 161 167 176 185 184 186 191 198 197 191 193 198 205 224 249
258 250 237 220 213 202 201 200 192 185 188 188 184 187 193 204 208 206 195 184 186 182 176 173 172 171 180 175 166 171 183 200 204 205 210 217 221 220 208 186 191 212 253
268 258 239 215 206 205 199 189 178 176 180 171 176 181 187 195 206 206 195 179 181 174 169 171 173 177 184 183 177 178 190 198 191 207 220 229 230 230 227 216 207 219 237
291 274 237 205 196 191 180 167 156 153 153 159 163 167 177 186 207 209 201 184 182 176 177 176 185 190 193 196 192 192 202 193 193 204 214 221 221 222 223 219 215 219 229
331 352 31 126 137 139 142 141 142 144 148 150 147 146 157 170 194 213 210 200 185 181 181 177 187 196 201 204 203 206 210 203 198 206 218 222 221 221 219 215 217 221 228
20 56 73 83 93 112 126 131 131 140 146 148 151 158 162 168 204 215 216 212 201 186 180 187 193 203 206 209 212 213 209 204 208 219 226 228 223 218 206 205 210 218 228
67 80 89 95 95 96 105 120 132 142 145 149 157 157 149 154 175 190 196 207 207 197 186 193 202 210 209 204 208 215 211 211 215 224 227 226 208 202 205 199 204 203 225
88 91 95 95 100 95 88 91 104 94 124 134 139 141 147 161 195 191 178 187 185 182 165 168 180 187 197 196 197 204 204 207 217 223 224 221 212 209 208 194 194 195 213
99 96 97 101 102 105 104 91 82 87 87 88 93 100 98 123 163 185 198 201 195 183 169 171 184 192 198 198 199 199 200 205 209 210 213 216 216 212 209 196 193 202 220
100 102 103 103 107 111 112 113 105 84 75 70 70 74 77 83 92 124 171 193 198 190 187 176 188 193 194 191 194 196 201 201 200 205 212 214 214 212 207 206 204 210 221
75 83 94 100 102 102 102 101 104 107 89 54 45 50 54 61 62 58 80 128 138 170 137 150 175 184 191 193 194 197 194 184 189 199 205 209 210 213 214 214 211 210 216
60 68 76 83 83 86 88 91 91 92 90 80 54 33 28 44 51 46 47 57 63 55 51 52 45 42 34 46 187 188 189 192 195 198 204 209 211 213 220 218 214 208 206
60 62 69 76 78 79 80 84 85 86 84 74 59 27 5 36 47 37 40 47 58 55 50 48 41 40 41 39 25 15 249 218 209 210 211 208 209 213 219 217 212 210 211
71 67 67 72 70 71 75 78 80 83 83 78 54 39 57 66 62 55 50 47 48 45 38 38 34 23 24 29 24 252 237 241 230 221 216 213 209 216 218 215 214 212 211
69 72 72 75 75 74 75 74 78 83 85 81 54 34 50 58 57 56 53 48 42 37 30 30 15 3 357 316 253 238 232 234 235 229 226 219 214 217 217 214 212 209 202
71 78 78 76 77 78 75 71 75 79 78 73 65 55 47 50 48 47 40 27 19 4 358 4 332 307 310 291 263 236 233 237 231 219 215 216 216 216 213 216 211 206 207
65 71 75 73 71 72 75 73 71 72 72 68 59 54 46 38 26 358 321 305 304 301 297 284 266 268 277 278 271 261 249 246 232 220 214 214 215 216 213 213 212 209 210
63 66 68 68 69 69 69 67 63 60 56 50 39 13 338 313 293 283 277 270 270 270 272 267 257 258 261 261 259 256 261 265 249 219 210 210 215 213 211 211 207 205 206
57 60 61 60 60 59 61 57 43 24 355 318 292 276 268 266 266 267 268 265 265 266 267 264 259 259 260 259 259 261 255 253 242 224 204 204 209 212 206 208 206 204 204